K4CRS-13 Weather Reports


time (UTC)temp
F
wind
direction
speed
knots
gust
knots
rain 1hr
in
rain 24hr
in
rain mn
in
humidity
%
barometer
mb
20260906074532 73 162 0.0 0.0 0.00 0.00 0.00 96 1048.2
20260906074025 73 156 0.0 0.0 0.00 0.00 0.00 96 1047.8
20260906073520 73 157 0.0 0.0 0.00 0.00 0.00 96 1048.0
20260906073016 73 159 0.0 0.0 0.00 0.00 0.00 96 1048.0
20260906072506 73 149 0.0 0.0 0.00 0.00 0.00 96 1048.0
20260906072002 73 167 0.0 0.0 0.00 0.00 0.00 96 1048.1
20260906071458 73 167 0.0 0.0 0.00 0.00 0.00 96 1047.9
20260906070953 73 159 0.0 0.0 0.00 0.00 0.00 96 1047.9
20260906070448 73 148 0.0 0.0 0.00 0.00 0.00 96 1048.0
20260906065944 73 149 0.0 0.0 0.00 0.00 0.00 96 1047.9
20260906065438 73 149 0.0 0.0 0.00 0.00 0.00 96 1047.8
20260906064934 73 159 0.0 0.0 0.00 0.00 0.00 96 1047.9
20260906064429 73 167 0.0 0.0 0.00 0.00 0.00 95 1047.8
20260906063924 73 161 0.0 0.0 0.00 0.00 0.00 95 1047.8
20260906063419 73 163 0.0 0.0 0.00 0.00 0.00 95 1047.7
20260906062915 74 163 0.0 0.0 0.00 0.00 0.00 95 1047.8
20260906062414 74 159 0.0 0.0 0.00 0.00 0.00 95 1047.9
20260906061909 74 172 0.0 0.0 0.00 0.00 0.00 95 1047.7
20260906061406 74 168 0.0 0.0 0.00 0.00 0.00 95 1047.8
20260906060859 74 163 0.0 0.0 0.00 0.00 0.00 95 1047.6
20260906060357 74 168 0.0 0.0 0.00 0.00 0.00 94 1047.7
20260906055853 74 161 0.0 0.0 0.00 0.00 0.00 94 1047.7
20260906055349 74 159 0.0 0.0 0.00 0.00 0.00 94 1047.8
20260906054844 74 158 0.0 0.0 0.00 0.00 0.00 94 1047.7
20260906054338 75 160 0.0 0.0 0.00 0.00 0.00 93 1047.7
20260906053835 75 167 0.0 0.0 0.00 0.00 0.00 93 1047.6
20260906053330 75 169 0.0 0.0 0.00 0.00 0.00 93 1047.7
20260906052826 75 170 0.0 0.0 0.00 0.00 0.00 93 1047.7
20260906052322 75 163 0.9 0.9 0.00 0.00 0.00 92 1047.8
20260906051819 75 160 0.0 0.0 0.00 0.00 0.00 92 1047.6
20260906051318 75 157 0.0 0.0 0.00 0.00 0.00 92 1047.7
20260906050814 75 170 0.0 0.0 0.00 0.00 0.00 92 1047.8
20260906050309 75 170 0.0 0.0 0.00 0.00 0.00 92 1047.9
20260906045808 76 142 0.9 0.9 0.00 0.00 0.00 92 1048.0
20260906045305 76 154 0.0 0.0 0.00 0.00 0.00 91 1047.9
20260906044759 76 165 0.0 0.0 0.00 0.00 0.00 91 1048.0
20260906044253 76 165 0.0 0.0 0.00 0.00 0.00 90 1047.9
20260906043749 76 162 0.0 0.0 0.00 0.00 0.00 90 1048.3
20260906043245 76 169 0.0 0.0 0.00 0.00 0.00 90 1048.1
20260906042744 76 178 0.0 0.0 0.00 0.00 0.00 89 1048.2
20260906042244 77 161 0.0 0.0 0.00 0.00 0.00 89 1048.4
20260906041739 77 156 0.0 0.0 0.00 0.00 0.00 89 1048.3
20260906041234 77 164 0.0 0.0 0.00 0.00 0.00 88 1048.3
20260906040730 77 167 0.0 0.0 0.00 0.00 0.00 88 1048.4
20260906040225 77 170 0.0 0.0 0.00 0.00 0.00 88 1048.3
20260906035721 78 171 0.0 0.0 0.00 0.00 0.00 87 1048.3
20260906035216 78 174 0.0 0.0 0.00 0.00 0.00 87 1048.6
20260906034716 78 158 0.0 0.0 0.00 0.00 0.00 87 1048.6
20260906034211 77 170 0.0 0.9 0.00 0.00 0.00 88 1048.4
20260906033707 77 163 0.0 0.0 0.00 0.00 0.00 88 1048.4
20260906033206 78 166 0.0 0.0 0.00 0.00 0.00 89 1048.4
20260906032703 78 151 0.0 0.0 0.00 0.00 0.00 89 1048.3
20260906032158 78 144 0.0 0.9 0.00 0.00 0.00 88 1048.2
20260906031653 78 153 0.0 0.0 0.00 0.00 0.00 88 1048.2
20260906031148 78 162 0.0 0.0 0.00 0.00 0.00 88 1048.2
20260906030648 78 151 0.0 0.0 0.00 0.00 0.00 87 1048.2
20260906030143 78 159 0.0 0.0 0.00 0.00 0.00 86 1048.1
20260906025642 78 164 0.0 0.0 0.00 0.00 0.00 86 1048.0
20260906025142 79 169 0.0 0.0 0.00 0.00 0.00 86 1047.7
20260906024636 79 169 0.0 0.0 0.00 0.00 0.00 85 1047.9
20260906024130 79 170 0.0 0.0 0.00 0.00 0.00 85 1048.0
20260906023627 79 169 0.0 0.0 0.00 0.00 0.00 85 1048.0
20260906023126 79 170 0.0 0.0 0.00 0.00 0.00 85 1047.9
20260906022622 79 161 0.0 0.0 0.00 0.00 0.00 85 1047.9
20260906022117 79 156 0.0 0.0 0.00 0.00 0.00 84 1047.7
20260906021613 79 161 0.0 0.0 0.00 0.00 0.00 84 1047.7
20260906021111 79 160 0.0 0.0 0.00 0.00 0.00 83 1047.5
20260906020611 80 163 0.0 0.0 0.00 0.00 0.00 83 1047.6
20260906020106 80 181 0.9 2.6 0.00 0.00 0.00 82 1047.2
20260906015606 81 175 0.9 0.9 0.00 0.00 0.00 82 1047.1
20260906015105 81 158 0.0 0.0 0.00 0.00 0.00 81 1047.1
20260906014600 81 157 0.0 0.0 0.00 0.00 0.00 81 1046.9
20260906014056 81 158 0.0 0.0 0.00 0.00 0.00 81 1046.9
20260906013551 81 155 0.0 0.9 0.00 0.00 0.00 81 1047.0
20260906013046 81 160 0.0 0.0 0.00 0.00 0.00 81 1046.9
20260906012541 82 158 0.0 0.0 0.00 0.00 0.00 80 1046.9
20260906012041 82 168 0.0 0.0 0.00 0.00 0.00 80 1046.8
20260906011537 82 165 0.0 0.0 0.00 0.00 0.00 80 1046.8
20260906011036 83 129 0.9 0.9 0.00 0.00 0.00 78 1046.9
20260906010532 83 150 0.0 0.9 0.00 0.00 0.00 78 1046.8
20260906010028 84 151 0.0 0.0 0.00 0.00 0.00 76 1046.6
20260906005527 85 162 0.0 0.0 0.00 0.00 0.00 74 1046.8
20260906005027 85 159 0.0 0.9 0.00 0.00 0.00 73 1046.7
20260906004526 85 151 0.0 0.9 0.00 0.00 0.00 73 1046.4
20260906004022 86 168 0.0 0.0 0.00 0.00 0.00 71 1046.8
20260906003517 86 151 0.9 0.9 0.00 0.00 0.00 68 1046.3
20260906003013 86 162 0.0 0.0 0.00 0.00 0.00 66 1046.5
20260906002513 87 147 0.9 0.9 0.00 0.00 0.00 66 1046.6
20260906002008 88 145 0.0 0.0 0.00 0.00 0.00 64 1046.6
20260906001503 88 141 0.9 0.9 0.00 0.00 0.00 63 1046.5
20260906000957 89 184 0.9 0.9 0.00 0.00 0.00 61 1046.6
20260906000455 91 180 0.0 0.0 0.00 0.00 0.00 59 1046.6
20260905235948 92 177 0.0 0.9 0.00 0.00 0.00 57 1046.6
20260905235448 93 163 0.0 0.0 0.00 0.00 0.00 54 1046.6
20260905234943 95 166 0.0 0.9 0.00 0.00 0.00 54 1046.4
20260905234439 96 168 0.0 0.0 0.00 0.00 0.00 49 1046.7
20260905233938 96 169 0.0 0.0 0.00 0.00 0.00 50 1046.5
20260905233434 96 166 0.0 0.0 0.00 0.00 0.00 49 1046.5
20260905232932 96 170 0.0 0.0 0.00 0.00 0.00 47 1046.7
20260905232429 97 160 0.0 0.9 0.00 0.00 0.00 47 1046.6
20260905231924 97 169 0.0 0.9 0.00 0.00 0.00 47 1046.5
20260905231420 98 167 0.0 0.0 0.00 0.00 0.00 46 1046.3
20260905230916 97 163 0.0 0.9 0.00 0.00 0.00 45 1046.5
20260905230414 97 124 0.9 0.9 0.00 0.00 0.00 47 1046.3
20260905225913 98 153 0.0 0.9 0.00 0.00 0.00 46 1046.4
20260905225408 98 159 0.0 0.9 0.00 0.00 0.00 45 1046.6
20260905224903 97 153 0.0 1.7 0.00 0.00 0.00 46 1046.2
20260905224359 98 148 0.9 2.6 0.00 0.00 0.00 44 1046.2
20260905223853 98 179 0.0 1.7 0.00 0.00 0.00 44 1046.3
20260905223352 98 212 0.9 2.6 0.00 0.00 0.00 45 1046.4
20260905222851 98 177 0.0 0.9 0.00 0.00 0.00 44 1046.3
20260905222350 98 113 2.6 2.6 0.00 0.00 0.00 42 1046.5
20260905221846 97 144 1.7 4.3 0.00 0.00 0.00 44 1046.2
20260905221343 98 33 0.9 4.3 0.00 0.00 0.00 43 1046.5
20260905220839 98 243 2.6 4.3 0.00 0.00 0.00 44 1046.4
20260905220335 98 147 0.0 4.3 0.00 0.00 0.00 44 1046.5
20260905215834 98 44 0.9 4.3 0.00 0.00 0.00 44 1046.4
20260905215330 98 62 1.7 4.3 0.00 0.00 0.00 43 1046.4
20260905214826 98 62 1.7 5.2 0.00 0.00 0.00 43 1046.4
20260905214321 98 149 0.9 2.6 0.00 0.00 0.00 43 1046.6
20260905213816 99 113 1.7 5.2 0.00 0.00 0.00 43 1046.5
20260905213312 100 80 0.9 5.2 0.00 0.00 0.00 43 1046.7
20260905212813 99 152 0.0 0.0 0.00 0.00 0.00 43 1046.6
20260905212312 99 315 1.7 4.3 0.00 0.00 0.00 43 1046.7
20260905211807 98 31 0.9 4.3 0.00 0.00 0.00 42 1046.7
20260905211302 99 178 0.0 1.7 0.00 0.00 0.00 41 1047.0
20260905210759 98 90 3.5 5.2 0.00 0.00 0.00 42 1046.9
20260905210258 98 90 3.5 6.1 0.00 0.00 0.00 42 1047.0
20260905205757 99 49 1.7 4.3 0.00 0.00 0.00 43 1046.9
20260905205252 99 215 1.7 5.2 0.00 0.00 0.00 42 1047.0
20260905204751 98 148 0.0 2.6 0.00 0.00 0.00 43 1047.3
20260905204248 98 57 3.5 6.1 0.00 0.00 0.00 44 1047.4
20260905203746 97 99 2.6 5.2 0.00 0.00 0.00 44 1047.2
20260905203242 96 126 0.0 1.7 0.00 0.00 0.00 47 1047.5
20260905202738 98 88 4.3 5.2 0.00 0.00 0.00 45 1047.3
20260905202238 98 64 3.5 5.2 0.00 0.00 0.00 45 1047.3
20260905201733 99 306 2.6 5.2 0.00 0.00 0.00 42 1047.2
20260905201228 101 342 2.6 2.6 0.00 0.00 0.00 41 1047.3
20260905200723 99 145 0.9 0.9 0.00 0.00 0.00 40 1047.3
20260905200219 98 92 3.5 5.2 0.00 0.00 0.00 43 1047.7
20260905195717 98 89 3.5 5.2 0.00 0.00 0.00 43 1047.5
20260905195212 99 61 3.5 4.3 0.00 0.00 0.00 44 1047.5
20260905194708 98 82 3.5 6.1 0.00 0.00 0.00 46 1047.6
20260905194207 97 335 2.6 4.3 0.00 0.00 0.00 47 1047.9
20260905193701 98 260 3.5 6.1 0.00 0.00 0.00 45 1047.9
20260905193156 98 14 6.1 7.0 0.00 0.00 0.00 46 1048.1
20260905192652 97 41 1.7 4.3 0.00 0.00 0.00 48 1047.9
20260905192149 97 278 2.6 6.1 0.00 0.00 0.00 47 1048.3
20260905191648 98 153 0.9 1.7 0.00 0.00 0.00 45 1048.3
20260905191146 97 312 1.7 4.3 0.00 0.00 0.00 46 1048.6
20260905190645 96 58 3.5 5.2 0.00 0.00 0.00 47 1048.2
20260905190144 97 40 2.6 6.1 0.00 0.00 0.00 48 1048.4
20260905185643 100 113 0.9 2.6 0.00 0.00 0.00 44 1048.2
20260905185138 98 179 1.7 4.3 0.00 0.00 0.00 46 1048.4
20260905184637 99 134 2.6 2.6 0.00 0.00 0.00 44 1048.7
20260905184137 97 233 2.6 4.3 0.00 0.00 0.00 46 1048.6
20260905183636 97 163 0.0 2.6 0.00 0.00 0.00 47 1048.9
20260905183131 97 15 1.7 7.0 0.00 0.00 0.00 48 1048.9
20260905182631 97 346 3.5 6.1 0.00 0.00 0.00 49 1048.7
20260905182130 97 58 0.9 5.2 0.00 0.00 0.00 48 1048.9
20260905181626 97 50 2.6 4.3 0.00 0.00 0.00 48 1048.9
20260905181125 98 21 2.6 5.2 0.00 0.00 0.00 48 1049.1
20260905180620 97 174 0.9 1.7 0.00 0.00 0.00 50 1049.2
20260905180115 96 152 0.9 1.7 0.00 0.00 0.00 50 1049.1
20260905175614 95 114 0.9 5.2 0.00 0.00 0.00 50 1049.3
20260905175109 95 201 0.9 4.3 0.00 0.00 0.00 51 1049.0
20260905174605 96 247 3.5 6.1 0.00 0.00 0.00 50 1049.3
20260905174100 95 349 4.3 7.8 0.00 0.00 0.00 51 1049.2
20260905173557 96 322 3.5 6.1 0.00 0.00 0.00 50 1049.5
20260905173052 96 103 2.6 7.0 0.00 0.00 0.00 50 1049.4
20260905172550 96 216 0.9 2.6 0.00 0.00 0.00 50 1049.5
20260905172046 96 219 1.7 2.6 0.00 0.00 0.00 49 1049.5
20260905171542 96 95 3.5 4.3 0.00 0.00 0.00 48 1049.5
20260905171038 95 90 2.6 5.2 0.00 0.00 0.00 52 1049.6
20260905170535 96 211 1.7 5.2 0.00 0.00 0.00 52 1049.7
20260905170029 96 98 2.6 5.2 0.00 0.00 0.00 51 1049.6
20260905165525 94 199 1.7 2.6 0.00 0.00 0.00 52 1049.8
20260905165020 95 297 4.3 6.1 0.00 0.00 0.00 53 1050.0
20260905164520 95 216 2.6 4.3 0.00 0.00 0.00 54 1050.3
20260905164015 95 219 2.6 5.2 0.00 0.00 0.00 51 1050.2
20260905163511 93 24 1.7 2.6 0.00 0.00 0.00 54 1049.9
20260905163006 94 342 4.3 6.1 0.00 0.00 0.00 52 1050.2
20260905162501 95 3 0.9 6.1 0.00 0.00 0.00 52 1050.2
20260905161951 94 162 0.9 1.7 0.00 0.00 0.00 53 1050.2
20260905161450 94 151 3.5 6.1 0.00 0.00 0.00 53 1050.0
20260905160948 94 232 2.6 7.0 0.00 0.00 0.00 54 1050.5
20260905160442 94 156 0.9 5.2 0.00 0.00 0.00 54 1050.2
20260905155942 94 2 2.6 5.2 0.00 0.00 0.00 55 1050.4
20260905155437 94 291 3.5 4.3 0.00 0.00 0.00 56 1050.3
20260905154936 94 322 4.3 6.1 0.00 0.00 0.00 56 1050.4
20260905154431 93 108 1.7 4.3 0.00 0.00 0.00 56 1050.6
20260905153927 94 240 3.5 4.3 0.00 0.00 0.00 56 1050.4
20260905153423 94 266 3.5 5.2 0.00 0.00 0.00 55 1050.5
20260905152922 94 324 3.5 4.3 0.00 0.00 0.00 56 1050.3
20260905152421 93 66 2.6 4.3 0.00 0.00 0.00 55 1050.2
20260905151917 93 26 2.6 2.6 0.00 0.00 0.00 55 1050.3
20260905151412 92 168 0.0 2.6 0.00 0.00 0.00 60 1050.2
20260905150913 93 65 1.7 2.6 0.00 0.00 0.00 60 1050.1
20260905150413 92 158 0.9 1.7 0.00 0.00 0.00 61 1050.4
20260905145910 92 34 1.7 4.3 0.00 0.00 0.00 62 1050.4
20260905145410 92 123 0.0 1.7 0.00 0.00 0.00 63 1050.4
20260905144909 91 208 0.9 5.2 0.00 0.00 0.00 64 1050.7
20260905144405 91 243 0.9 1.7 0.00 0.00 0.00 62 1050.4
20260905143903 91 252 2.6 2.6 0.00 0.00 0.00 63 1050.2
20260905143358 90 160 0.0 0.9 0.00 0.00 0.00 67 1050.0
20260905142857 90 73 1.7 1.7 0.00 0.00 0.00 68 1050.4
20260905142356 89 159 0.0 1.7 0.00 0.00 0.00 68 1050.2
20260905141852 89 106 1.7 1.7 0.00 0.00 0.00 69 1050.5
20260905141347 88 153 0.0 0.9 0.00 0.00 0.00 70 1050.4
20260905140844 87 104 0.9 0.9 0.00 0.00 0.00 71 1050.5
20260905140343 87 134 0.0 0.9 0.00 0.00 0.00 72 1050.6
20260905135842 87 137 0.0 1.7 0.00 0.00 0.00 73 1050.4
20260905135338 85 129 0.0 0.9 0.00 0.00 0.00 77 1050.4
20260905134833 84 153 0.0 0.9 0.00 0.00 0.00 79 1050.8
20260905134332 84 153 0.9 0.9 0.00 0.00 0.00 80 1050.6
20260905133827 84 137 0.0 0.9 0.00 0.00 0.00 79 1050.6
20260905133322 84 158 0.0 0.0 0.00 0.00 0.00 81 1050.8
20260905132821 83 152 0.0 0.0 0.00 0.00 0.00 82 1050.6
20260905132317 82 157 0.0 0.0 0.00 0.00 0.00 85 1050.6
20260905131811 81 158 0.0 0.0 0.00 0.00 0.00 89 1050.8
20260905131307 80 157 0.0 0.0 0.00 0.00 0.00 94 1050.6
20260905130802 78 155 0.0 0.0 0.00 0.00 0.00 96 1050.8
20260905130301 77 160 0.0 0.0 0.00 0.00 0.00 97 1050.5
20260905125756 77 160 0.0 0.0 0.00 0.00 0.00 98 1050.4
20260905125256 76 160 0.0 0.0 0.00 0.00 0.00 99 1050.7
20260905124752 75 161 0.0 0.0 0.00 0.00 0.00 99 1050.7
20260905124248 74 159 0.0 0.0 0.00 0.00 0.00 99 1050.9
20260905123743 74 155 0.0 0.0 0.00 0.00 0.00 99 1050.7
20260905123240 73 156 0.0 0.0 0.00 0.00 0.00 99 1050.6
20260905122735 72 158 0.0 0.0 0.00 0.00 0.00 99 1050.5
20260905122234 70 148 0.0 0.0 0.00 0.00 0.00 99 1050.7
20260905121729 69 163 0.0 0.0 0.00 0.00 0.00 99 1050.4
20260905121226 69 158 0.0 0.0 0.00 0.00 0.00 99 1050.6
20260905120724 69 146 0.0 0.0 0.00 0.00 0.00 99 1050.3
20260905120219 69 150 0.0 0.0 0.00 0.00 0.00 99 1050.4
20260905115714 69 157 0.0 0.0 0.00 0.00 0.00 99 1050.3
20260905115209 69 161 0.0 0.0 0.00 0.00 0.00 99 1050.2
20260905114708 69 164 0.0 0.0 0.00 0.00 0.00 99 1050.2
20260905114207 69 165 0.0 0.0 0.00 0.00 0.00 99 1050.2
20260905113706 69 163 0.0 0.0 0.00 0.00 0.00 99 1050.3
20260905113202 69 152 0.0 0.0 0.00 0.00 0.00 99 1049.9
20260905112702 69 158 0.0 0.0 0.00 0.00 0.00 99 1050.2
20260905112158 69 161 0.0 0.0 0.00 0.00 0.00 99 1049.8
20260905111657 69 158 0.0 0.0 0.00 0.00 0.00 99 1049.7
20260905111157 69 160 0.0 0.0 0.00 0.00 0.00 99 1049.7
20260905110656 69 156 0.0 0.0 0.00 0.00 0.00 99 1049.7
20260905110151 69 153 0.0 0.0 0.00 0.00 0.00 99 1049.7
20260905105647 69 147 0.0 0.0 0.00 0.00 0.00 99 1049.7
20260905105145 69 159 0.0 0.0 0.00 0.00 0.00 99 1049.5
20260905104640 69 158 0.0 0.0 0.00 0.00 0.00 99 1049.6
20260905104136 69 143 0.0 0.9 0.00 0.00 0.00 99 1049.7
20260905103631 69 158 0.0 0.0 0.00 0.00 0.00 99 1049.4
20260905103127 69 158 0.0 0.0 0.00 0.00 0.00 99 1049.3
20260905102623 69 154 0.0 0.0 0.00 0.00 0.00 99 1049.5
20260905102119 70 151 0.0 0.0 0.00 0.00 0.00 99 1049.3
20260905101617 69 164 0.0 0.0 0.00 0.00 0.00 99 1049.4
20260905101116 70 167 0.0 0.0 0.00 0.00 0.00 99 1049.4
20260905100612 70 167 0.0 0.0 0.00 0.00 0.00 99 1049.5
20260905100107 70 165 0.0 0.0 0.00 0.00 0.00 99 1049.3
20260905095601 70 165 0.0 0.0 0.00 0.00 0.00 99 1049.5
20260905095056 70 167 0.0 0.0 0.00 0.00 0.00 99 1049.5
20260905094552 70 169 0.0 0.0 0.00 0.00 0.00 99 1049.5
20260905094051 70 161 0.0 0.0 0.00 0.00 0.00 99 1049.4
20260905093550 70 160 0.0 0.0 0.00 0.00 0.00 99 1049.5
20260905093048 70 155 0.0 0.0 0.00 0.00 0.00 99 1049.7
20260905092547 70 158 0.0 0.0 0.00 0.00 0.00 99 1049.3
20260905092043 70 162 0.0 0.0 0.00 0.00 0.00 99 1049.5
20260905091541 70 156 0.0 0.0 0.00 0.00 0.00 99 1049.2
20260905091036 70 154 0.0 0.9 0.00 0.00 0.00 99 1049.2
20260905090530 70 154 0.0 0.0 0.00 0.00 0.00 98 1049.3
20260905090026 70 150 0.0 0.0 0.00 0.00 0.00 98 1049.2
20260905085524 71 164 0.0 0.0 0.00 0.00 0.00 98 1049.1
20260905085021 71 164 0.0 0.0 0.00 0.00 0.00 98 1049.2
20260905084520 71 164 0.0 0.0 0.00 0.00 0.00 98 1049.2
20260905084016 71 165 0.0 0.0 0.00 0.00 0.00 98 1049.2
20260905083510 71 168 0.0 0.0 0.00 0.00 0.00 98 1049.3
20260905083007 71 165 0.0 0.0 0.00 0.00 0.00 98 1049.1
20260905082502 71 167 0.0 0.0 0.00 0.00 0.00 98 1049.1
20260905081957 71 166 0.0 0.0 0.00 0.00 0.00 98 1049.1
20260905081451 71 150 0.0 0.0 0.00 0.00 0.00 98 1049.3
20260905080950 71 153 0.0 0.0 0.00 0.00 0.00 98 1049.4
20260905080445 71 158 0.0 0.0 0.00 0.00 0.00 98 1049.4
20260905075944 71 155 0.0 0.0 0.00 0.00 0.00 98 1049.2
20260905075440 71 154 0.0 0.0 0.00 0.00 0.00 98 1049.4